Regional Weather Roundup
Issued by NWS Charleston, SC

Home | Current Version | Previous Version | Text Only | Print | Product List | Glossary On
Versions: 1 2 3 4 5 6 7 8 9 10 11 12 13 14 15 16 17 18 19 20 21 22 23 24 25 26 27 28 29 30 31 32 33 34 35 36 37 38 39 40 41 42 43 44 45 46 47 48 49 50
000
ASUS42 KCHS 280113
RWRCHS

REGIONAL WEATHER ROUNDUP
NATIONAL WEATHER SERVICE CHARLESTON SC
900 PM EDT SAT AUG 27 2016

NOTE: "FAIR" INDICATES FEW OR NO CLOUDS BELOW 12,000 FEET WITH NO
SIGNIFICANT WEATHER AND/OR OBSTRUCTIONS TO VISIBILITY.

NOT ALL STATIONS ARE QUALITY CONTROLLED. USE DATA WITH CAUTION...
ESPECIALLY DEWPOINT OBSERVATIONS.

SCZ027-030-031-034>040-042>050-280200-
...SOUTHEAST SOUTH CAROLINA...

CITY           SKY/WX    TMP DP  RH WIND       PRES   REMARKS
N CHARLESTON   CLEAR     82  71  69 E6        30.07R
WATERFRONT PRK   N/A     83  76  79 E7        30.03R HX  91
MOUNT PLEASANT FAIR      79  73  83 CALM      30.07R
JOHNS ISLAND   FAIR      81  73  78 E3        30.07R
PINOPOLIS        N/A     81  72  74 CALM      30.00R
MONCKS CORNER  FAIR      79  70  73 CALM      30.07R
SUMMERVILLE    FAIR      81  70  69 CALM      30.08R
BEAUFORT MCAS  CLEAR     82  74  76 E8        30.06R
BEAUFORT ARPT  FAIR      81  73  78 E6        30.06R
HILTON HEAD IS PTCLDY    82  75  78 VRB6G12   30.06R
WALTERBORO     CLEAR     81  70  69 E3        30.08R
ALLENDALE      FAIR      82  66  57 SE5       30.06R

...SOUTHERN MIDLANDS AND PEE DEE...

CITY           SKY/WX    TMP DP  RH WIND       PRES   REMARKS
GEORGETOWN     FAIR      77  72  83 E3        30.08R
KINGSTREE      FAIR      77  68  73 E3        30.08R
ORANGEBURG     CLEAR     84  68  58 CALM      30.07R
BARNWELL       NOT AVBL
AIKEN          FAIR      84  66  54 E5        30.11R
MANNING        FAIR      79  70  73 CALM      30.07R
COLUMBIA       PTCLDY    87  71  58 SE7       30.07R HX  93
SUMTER         CLEAR     85  70  61 S3        30.06R
FLORENCE       PTCLDY    84  72  67 SE6       30.09R
MYRTLE BEACH   CLEAR     82  68  61 S8        30.10R
N MYRTLE BEACH CLEAR     81  73  76 CALM      30.09R

$$

GAZ063-065-086>088-099>101-113>116-118-119-134>141-150-280200-
...SOUTHEAST GEORGIA...

CITY           SKY/WX    TMP DP  RH WIND       PRES   REMARKS
SAVANNAH ARPT  PTCLDY    80  73  79 E6        30.06R
HUNTER AAF     CLEAR     80  77  90 E5        30.03R
FORT STEWART   CLEAR     80  73  78 CALM      30.03R
STATESBORO     CLEAR     83  72  69 CALM      30.06R
SYLVANIA       NOT AVBL
CLAXTON        FAIR      82  73  74 E3        30.06R

...CSRA...CENTRAL AND FAR SOUTHEAST GEORGIA...

CITY           SKY/WX    TMP DP  RH WIND       PRES   REMARKS
THOMSON        CLEAR     84  73  70 MISG      30.11R HX  91
AUGUSTA-BUSH   CLEAR     82  70  66 S3        30.05R
AUGUSTA-DANIEL CLEAR     90  68  48 E7        30.07R HX  94
SWAINSBORO     FAIR      86  61  42 CALM      30.07R
VIDALIA        CLEAR     82  72  69 E6        30.06R
EASTMAN        FAIR      86  56  35 SE3       30.07R
HAZLEHURST     FAIR      85  72  63 CALM      30.04R HX  91
ALMA           CLEAR     81  71  71 E5        30.04R
WAYCROSS         N/A     82  78  88 E3        30.03R HX  90
JESUP          FAIR      81  77  89 E5        30.05R
BAXLEY         FAIR      82  77  83 E5        30.04R HX  91
BRUNSWICK      CLEAR     77  77 100 NE6       30.03R
SAINT SIMONS   PTCLDY    82  75  79 E8        30.02R

$$

SCZ027-028-034-036>038-045-046-048>050-GAZ119-141-280200-
...LAKE AND SUPPLEMENTAL COASTAL OBSERVATIONS...

STATION/POSITION TIME  TEMP    WIND        PRES    WAVE   SWELL
                       AIR SEA DIR/SP/G            HT/PER HT/PER/DIR
                 (UTC) (F)     (DEG/KT/KT) (MB)    (FT/S) (FT/S/D)
WINYAH BAY       NOT AVBL
LAKE MURRAY      0000   90     120/  4/  7 1016.9R
ACE BASIN NERRS  NOT AVBL
FORT PULASKI     0000   82 86   70/ 10/ 15 1017.3R
SAPELO ISLAND    0000   83      80/  6     1016.0S

$$

ANZ835-935-AMZ111-154-330-350-352-354-370-450-454-472-280200-
...C-MAN AND BUOY OBSERVATIONS...

STATION/POSITION TIME  TEMP    WIND        PRES    WAVE   SWELL
                       AIR SEA DIR/SP/G            HT/PER HT/PER/DIR
                 (UTC) (F)     (DEG/KT/KT) (MB)    (FT/S) (FT/S/D)
BUOY 41004       0050   84 84   80/ 12/ 12 1017.1R   4/ 9   3/130/ 9
BUOY 41008       0050   84 85   80/ 12/ 16 1016.6R   4/ 9   3/110/ 9
FOLLY BEACH CMAN 0100   83      80/ 10/ 12 1018.4R
CAPERS NEARSHORE 0008   83 85   80/ 10/ 16 1017.3R
FRIPP NEARSHORE  0008   83 86   90/ 12/ 17 1016.8R


STATION/POSITION TIME  TEMP    WIND        PRES    WAVE   SWELL
                       AIR SEA DIR/SP/G            HT/PER HT/PER/DIR
                 (UTC) (F)     (DEG/KT/KT) (MB)    (FT/S) (FT/S/D)
5E ST. MARYS GA  0001      85                N/A     4/ 9   2/110/11
FRYING PAN BUOY  0000   83 85   90/ 10/ 12 1017.1R
BUOY 41025       0050   83 85   50/  8/ 10 1018.5R   3/ 9   3/100/ 9
CAPE LOOKOUT NC  0100   82      70/  8/  9 1018.7R
BUOY 41002       0050   83 84   70/ 14/ 16 1016.5R   4/ 8   3/120/ 8
BUOY 41010       NOT AVBL
ST AUGUSTINE FL  0100   83 85  100/ 11/ 12 1016.4R


$$




USA.gov is the U.S. government's official web portal to all federal, state and local government web resources and services.